[[{"header":{"parameterUnit":"m.s-1","parameterCategory":1,"la1":30.2991,"la2":30.254,"lo1":-89.0895,"lo2":-89.0444,"dy":0.0017,"dx":0.0017,"nx":28,"ny":28,"refTime":"2025-03-25T21:00:00:Z","depth":0,"parameterNumber":2,"parameterNumberName":"U-component_of_WINDS"},"data":[0,0,0,0,0,0,0,0,0,0,0,0,0,0,0,0,0,0,0,0,0,0,0,0,0,0,0,0,0,0,0,0,0,0,0,0,0,0,0,0,0,0,0,0,0,0,0,0,0,0,0,0,0,0,0,0,0,0,-2.0931,-2.0931,0,-2.0966,-2.0966,-2.0966,-2.0894,-2.0892,-2.0889,-2.0887,-2.0925,-2.0928,-2.0931,0,0,0,0,0,0,0,0,0,0,0,0,0,-2.0805,-2.0808,-2.0931,-2.0931,-2.0932,-2.0966,-2.0966,-2.0967,-2.0894,-2.0891,-2.0889,-2.0886,-2.0924,-2.0928,-2.0931,0,0,0,0,0,0,0,0,0,0,0,0,0,-2.0852,-2.0809,-2.0931,-2.09,-2.0897,-2.0966,-2.0966,-2.0967,-2.0895,-2.0891,-2.0888,-2.0885,-2.0923,-2.0927,-2.0932,-2.1033,0,0,-2.0947,-2.0949,0,0,0,0,0,0,0,0,-2.0849,-2.0857,-2.0904,-2.0902,-2.0899,-2.0922,-2.0935,-2.0989,-2.0896,-2.0896,-2.0887,-2.0883,-2.0927,-2.0931,-2.0945,-2.1034,-2.1036,-2.0947,-2.095,-2.0952,-2.0953,0,0,0,0,0,0,0,-2.0846,-2.0855,-2.0945,-2.0905,-2.0902,-2.0885,-2.0888,-2.0945,-2.0931,-2.0896,-2.089,-2.0895,-2.0925,-2.0941,-2.0946,-2.1037,-2.0947,-2.0951,-2.0954,-2.0956,-2.1211,-2.1215,0,0,0,0,0,0,-2.0847,-2.0853,-2.0944,-2.0946,-2.0865,-2.089,-2.0893,-2.0918,-2.093,-2.0928,-2.0898,-2.0892,-2.0934,-2.094,-2.0947,-2.1066,-2.0952,-2.0957,-2.0959,-2.1207,-2.1212,-2.1216,0,0,0,0,0,0,-2.0844,-2.0855,-2.0942,-2.0898,-2.0908,-2.0896,-2.0925,-2.0921,-2.0937,-2.0932,-2.0929,-2.0917,-2.0932,-2.094,-2.1012,-2.1066,-2.0959,-2.0963,-2.1203,-2.1209,-2.1214,-2.1305,0,0,0,0,0,0,-2.0841,-2.0855,-2.0892,-2.0899,-2.091,-2.1006,-2.0928,-2.0924,-2.0945,-2.0937,-2.0949,-2.0948,-2.093,-2.1005,-2.1017,-2.1071,-2.0967,-2.1198,-2.1205,-2.1212,-2.1297,-2.1313,-2.1327,0,0,0,0,0,-2.0837,-2.0917,-2.0894,-2.0906,-2.0956,-2.1009,-2.1016,-2.0993,-2.095,-2.0988,-2.0985,-2.0947,-2.1059,-2.1013,-2.1026,-2.1082,-2.1194,-2.1203,-2.1212,-2.129,-2.131,-2.1327,0,0,0,0,0,0,-2.0917,-2.0917,-2.0892,-2.0977,-2.0994,-2.0997,-2.1044,-2.1014,-2.1044,-2.1035,-2.1006,-2.101,-2.1087,-2.1092,-2.1041,-2.1181,-2.1119,-2.1131,-2.1175,-2.1193,-2.1208,-2.1205,-2.0971,0,0,0,0,0,-2.0944,-2.0987,-2.0985,-2.106,-2.1069,-2.1056,-2.1078,-2.1058,-2.1075,-2.1082,-2.1084,-2.1102,-2.1141,-2.1168,-2.1203,-2.1298,-2.13,-2.1343,-2.1358,-2.137,-2.1381,-2.1432,-2.1451,-2.1245,-2.1245,-2.1245,0,0,-2.1002,-2.1007,-2.1035,-2.1076,-2.1086,-2.1132,-2.1062,-2.1112,-2.1146,-2.109,-2.1157,-2.116,-2.1179,-2.1263,-2.1299,-2.1269,-2.1438,-2.1381,-2.1391,-2.1395,-2.1443,-2.1462,-2.148,-2.1251,-2.125,-2.1249,0,0,-2.1129,-2.1137,-2.1201,-2.1213,-2.123,-2.1221,-2.1236,-2.1244,-2.1244,-2.1311,-2.127,-2.1311,-2.1378,-2.1393,-2.141,-2.1545,-2.1512,-2.1557,-2.1635,-2.1686,-2.1702,-2.1716,-2.1765,-2.1783,-2.1568,-2.1568,-2.1568,0,-2.1199,-2.1264,-2.1237,-2.1291,-2.1311,-2.1262,-2.1326,-2.134,-2.1368,-2.1383,-2.1348,-2.1433,-2.1442,-2.1529,-2.1562,-2.1577,-2.1594,-2.1556,-2.1702,-2.1716,-2.1729,-2.1775,-2.1793,-2.1573,-2.1573,-2.1572,-2.1572,0,-2.1349,-2.1395,-2.1445,-2.1473,-2.1498,-2.1557,-2.154,-2.1569,-2.1549,-2.1543,-2.1614,-2.1623,-2.166,-2.1679,-2.1659,-2.1764,-2.1744,-2.1706,-2.1644,-2.1754,-2.1797,-2.1815,-2.1581,-2.1579,-2.1578,-2.1576,0,0,-2.1527,-2.154,-2.1559,-2.1572,-2.1587,-2.1623,-2.1681,-2.1716,-2.1742,-2.1764,-2.1812,-2.1871,-2.1836,-2.1855,-2.1837,-2.1881,-2.1988,-2.1837,-2.1837,-2.1865,-2.2105,-2.2134,-2.2155,-2.1967,-2.197,-2.1972,-2.2104,0,-2.1653,-2.1751,-2.173,-2.1827,-2.187,-2.1825,-2.1875,-2.1891,-2.1888,-2.1925,-2.1922,-2.1964,-2.1915,-2.1926,-2.1968,-2.1966,-2.2036,-2.1957,-2.2012,-2.2014,-2.2009,-2.2177,-2.2207,-2.2331,-2.212,-2.2123,-2.2125,0,-2.1814,-2.1841,-2.1943,-2.1952,-2.197,-2.2015,-2.2047,-2.2082,-2.21,-2.2095,-2.2117,-2.209,-2.2149,-2.2086,-2.2167,-2.2113,-2.2135,-2.2138,-2.2142,-2.2146,-2.2076,-2.2186,-2.2369,-2.2388,-2.2151,-2.2149,-2.2147,0,-2.1934,-2.1997,-2.2065,-2.2077,-2.2091,-2.2124,-2.2131,-2.2145,-2.2168,-2.2197,-2.2212,-2.2247,-2.2266,-2.2294,-2.2278,-2.2234,-2.2362,-2.2298,-2.236,-2.2361,-2.2389,-2.2387,-2.2578,-2.2403,-2.2403,-2.2403,-2.2402,0,-2.2078,-2.2141,-2.212,-2.2162,-2.2233,-2.2208,-2.2279,-2.2281,-2.2294,-2.2337,-2.23,-2.2342,-2.2318,-2.2358,-2.2346,-2.2415,-2.2424,-2.2423,-2.2419,-2.2426,-2.2426,-2.2439,-2.2431,-2.2407,-2.2406,-2.2405,-2.2405,0,-2.2224,-2.2211,-2.2283,-2.229,-2.2294,-2.2346,-2.2352,-2.2392,-2.2387,-2.2441,-2.2453,-2.2445,-2.249,-2.2477,-2.2526,-2.2518,-2.2606,-2.2591,-2.26,-2.2596,-2.2659,-2.2654,-2.2866,-2.2892,-2.27,-2.2702,-2.2703,0,-2.2316,-2.2364,-2.2376,-2.2402,-2.2412,-2.2454,-2.2477,-2.2456,-2.2482,-2.2506,-2.2544,-2.2586,-2.2618,-2.2692,-2.2691,-2.2729,-2.2715,-2.2787,-2.272,-2.2726,-2.2717,-2.2714,-2.2719,-2.28,-2.2802,-2.2804,-2.2805,0,-2.2481,-2.2473,-2.2508,-2.2542,-2.2571,-2.2596,-2.2619,-2.2642,-2.2622,-2.2654,-2.2699,-2.2724,-2.2774,-2.2817,-2.2851,-2.286,-2.283,-2.2826,-2.2843,-2.2851,-2.2854,-2.2853,-2.2636,-2.2822,-2.282,-2.2819,-2.2818,-2.2817,-2.2603,-2.2644,-2.2659,-2.27,-2.2714,-2.2736,-2.2775,-2.2774,-2.2812,-2.285,-2.2836,-2.2888,-2.2906,-2.2949,-2.2962,-2.3004,-2.2976,-2.3,-2.3006,-2.3012,-2.302,-2.2847,-2.301,-2.3009,-2.3009,-2.3009,-2.3008,0,-2.2766,-2.2774,-2.2812,-2.2844,-2.2877,-2.2846,-2.2869,-2.2899,-2.2945,-2.2964,-2.2996,-2.3049,-2.309,-2.3093,-2.3132,-2.3165,-2.3153,-2.3176,-2.3173,-2.3176,-2.3042,-2.3024,-2.3186,-2.3186,-2.3186,-2.3186,-2.3186,-2.3186,-2.2855,-2.2923,-2.2917,-2.2993,-2.3,-2.3051,-2.3067,-2.3087,-2.3102,-2.3163,-2.3197,-2.3198,-2.3211,-2.3251,-2.3288,-2.3288,-2.3304,-2.3333,-2.3328,-2.3203,-2.3185,-2.3169,-2.3151,-2.3337,-2.3337,-2.3458,-2.3459,-2.346]},{"header":{"parameterUnit":"m.s-1","parameterCategory":1,"la1":30.2991,"la2":30.254,"lo1":-89.0895,"lo2":-89.0444,"dy":0.0017,"dx":0.0017,"nx":28,"ny":28,"refTime":"2025-03-25T21:00:00:Z","depth":0,"parameterNumber":3,"parameterNumberName":"V-component_of_WINDS"},"data":[0,0,0,0,0,0,0,0,0,0,0,0,0,0,0,0,0,0,0,0,0,0,0,0,0,0,0,0,0,0,0,0,0,0,0,0,0,0,0,0,0,0,0,0,0,0,0,0,0,0,0,0,0,0,0,0,0,0,-0.2215,-0.2214,0,-0.2171,-0.217,-0.217,-0.2142,-0.2142,-0.2142,-0.2142,-0.2098,-0.2097,-0.2096,0,0,0,0,0,0,0,0,0,0,0,0,0,-0.2274,-0.2273,-0.2215,-0.2214,-0.2214,-0.2171,-0.217,-0.217,-0.2142,-0.2142,-0.2142,-0.2141,-0.2098,-0.2097,-0.2096,0,0,0,0,0,0,0,0,0,0,0,0,0,-0.2241,-0.2273,-0.2215,-0.2195,-0.2192,-0.2171,-0.217,-0.2169,-0.2142,-0.2142,-0.2142,-0.2141,-0.2098,-0.2097,-0.2095,-0.2091,0,0,-0.2091,-0.209,0,0,0,0,0,0,0,0,-0.2243,-0.2239,-0.2198,-0.2196,-0.2193,-0.2162,-0.2175,-0.2143,-0.2142,-0.2161,-0.2142,-0.2141,-0.2119,-0.2116,-0.2108,-0.2089,-0.2087,-0.2091,-0.209,-0.2089,-0.2089,0,0,0,0,0,0,0,-0.2245,-0.2241,-0.2197,-0.2198,-0.2195,-0.2188,-0.2183,-0.2169,-0.2142,-0.216,-0.2157,-0.2153,-0.2118,-0.211,-0.2107,-0.2086,-0.2091,-0.2089,-0.2088,-0.2088,-0.2059,-0.2059,0,0,0,0,0,0,-0.2251,-0.2243,-0.2199,-0.2196,-0.2218,-0.2187,-0.2181,-0.2172,-0.2142,-0.2137,-0.2153,-0.2151,-0.2113,-0.2109,-0.2105,-0.2097,-0.2089,-0.2088,-0.2087,-0.2058,-0.2059,-0.2059,0,0,0,0,0,0,-0.2252,-0.2247,-0.22,-0.2219,-0.2212,-0.2186,-0.2176,-0.2171,-0.2163,-0.2137,-0.2132,-0.215,-0.2112,-0.2108,-0.2094,-0.2095,-0.2087,-0.2086,-0.2058,-0.2059,-0.2059,-0.208,0,0,0,0,0,0,-0.2254,-0.2248,-0.2246,-0.2219,-0.2211,-0.219,-0.2176,-0.2171,-0.2161,-0.2158,-0.2133,-0.2128,-0.2112,-0.2096,-0.2093,-0.2093,-0.2084,-0.2058,-0.2058,-0.2059,-0.208,-0.2081,-0.2083,0,0,0,0,0,-0.2256,-0.2255,-0.2246,-0.2241,-0.2209,-0.219,-0.2186,-0.2167,-0.2161,-0.2158,-0.2141,-0.2129,-0.2095,-0.2095,-0.2091,-0.209,-0.2058,-0.2058,-0.2059,-0.2079,-0.2081,-0.2083,0,0,0,0,0,0,-0.2284,-0.2251,-0.2241,-0.2231,-0.2213,-0.2186,-0.2183,-0.217,-0.2154,-0.2153,-0.213,-0.2124,-0.2113,-0.21,-0.2101,-0.2083,-0.2075,-0.2075,-0.2092,-0.2094,-0.2096,-0.2099,-0.2083,0,0,0,0,0,-0.2288,-0.2276,-0.2248,-0.2242,-0.2233,-0.2209,-0.2201,-0.2187,-0.2168,-0.2161,-0.2143,-0.2126,-0.2111,-0.2102,-0.2087,-0.2077,-0.2071,-0.2075,-0.2076,-0.2078,-0.2078,-0.207,-0.2071,-0.206,-0.206,-0.206,0,0,-0.2298,-0.2279,-0.2273,-0.2246,-0.2232,-0.2219,-0.2204,-0.2191,-0.2182,-0.2159,-0.2145,-0.2131,-0.211,-0.2098,-0.2092,-0.2087,-0.2079,-0.2078,-0.208,-0.2079,-0.2071,-0.2072,-0.2073,-0.206,-0.206,-0.206,0,0,-0.231,-0.2294,-0.2286,-0.2271,-0.2248,-0.2232,-0.223,-0.2203,-0.2193,-0.2178,-0.216,-0.2148,-0.2124,-0.2109,-0.2098,-0.2101,-0.2089,-0.2097,-0.2106,-0.2099,-0.21,-0.2101,-0.2101,-0.2101,-0.2097,-0.2097,-0.2097,0,-0.2325,-0.2305,-0.2284,-0.2272,-0.226,-0.2238,-0.223,-0.2216,-0.219,-0.2182,-0.2177,-0.2144,-0.2129,-0.2112,-0.2113,-0.2105,-0.2101,-0.21,-0.2102,-0.2102,-0.2102,-0.2102,-0.2103,-0.2098,-0.2098,-0.2098,-0.2098,0,-0.2325,-0.2311,-0.2307,-0.2281,-0.2269,-0.2259,-0.2236,-0.2226,-0.2213,-0.2197,-0.2181,-0.2161,-0.2141,-0.2136,-0.2124,-0.2117,-0.2115,-0.2106,-0.2097,-0.2105,-0.2104,-0.2104,-0.21,-0.2099,-0.2099,-0.2099,0,0,-0.2353,-0.2314,-0.2313,-0.23,-0.2272,-0.2261,-0.2249,-0.2229,-0.222,-0.2203,-0.2192,-0.217,-0.2161,-0.2149,-0.2134,-0.2128,-0.213,-0.212,-0.2119,-0.2122,-0.2121,-0.2127,-0.2128,-0.2122,-0.2122,-0.2122,-0.2122,0,-0.236,-0.2338,-0.2317,-0.2302,-0.2288,-0.2266,-0.2256,-0.2237,-0.2222,-0.2208,-0.219,-0.2175,-0.2165,-0.2157,-0.215,-0.2132,-0.213,-0.2131,-0.2111,-0.2111,-0.2117,-0.2128,-0.2135,-0.2137,-0.2122,-0.2122,-0.2122,0,-0.2366,-0.2347,-0.2331,-0.2302,-0.2296,-0.2287,-0.2265,-0.2252,-0.223,-0.2219,-0.2204,-0.2189,-0.2174,-0.2167,-0.2146,-0.2148,-0.2138,-0.2128,-0.2127,-0.2125,-0.2117,-0.2125,-0.2137,-0.2137,-0.2122,-0.2122,-0.2122,0,-0.2387,-0.2358,-0.2344,-0.2334,-0.2301,-0.2295,-0.2281,-0.2258,-0.2246,-0.2228,-0.222,-0.22,-0.2189,-0.2174,-0.2152,-0.2149,-0.2134,-0.2125,-0.2124,-0.2124,-0.2122,-0.2122,-0.2132,-0.2116,-0.2116,-0.2116,-0.2116,0,-0.2397,-0.2387,-0.2353,-0.2345,-0.2333,-0.2308,-0.2297,-0.2281,-0.2261,-0.2249,-0.2228,-0.2217,-0.219,-0.2175,-0.2158,-0.2143,-0.2139,-0.2129,-0.2125,-0.2131,-0.2132,-0.2124,-0.2123,-0.2116,-0.2116,-0.2116,-0.2116,0,-0.2419,-0.2396,-0.2379,-0.2348,-0.234,-0.2333,-0.2306,-0.2296,-0.2279,-0.2263,-0.2258,-0.2231,-0.2212,-0.2189,-0.2163,-0.2152,-0.2138,-0.2132,-0.2146,-0.2143,-0.2143,-0.2143,-0.2148,-0.2147,-0.2132,-0.2132,-0.2133,0,-0.2427,-0.2419,-0.2386,-0.2376,-0.2362,-0.2346,-0.2334,-0.2309,-0.2297,-0.227,-0.2263,-0.2243,-0.2225,-0.2196,-0.2174,-0.2154,-0.2146,-0.2149,-0.2143,-0.2149,-0.2145,-0.2146,-0.2145,-0.2151,-0.2151,-0.2152,-0.2152,0,-0.2442,-0.2431,-0.2414,-0.2392,-0.2377,-0.2359,-0.234,-0.2333,-0.2304,-0.2291,-0.2271,-0.2257,-0.223,-0.2209,-0.2186,-0.2171,-0.2156,-0.2154,-0.2152,-0.2158,-0.2166,-0.2161,-0.2149,-0.2154,-0.2154,-0.2153,-0.2153,-0.2153,-0.2457,-0.2448,-0.2424,-0.2404,-0.2387,-0.2369,-0.2358,-0.2338,-0.2321,-0.2297,-0.2283,-0.2263,-0.224,-0.2206,-0.2192,-0.2176,-0.217,-0.2169,-0.2168,-0.2168,-0.2169,-0.2169,-0.2171,-0.2171,-0.2171,-0.2171,-0.2171,0,-0.2471,-0.2453,-0.2436,-0.2409,-0.2394,-0.238,-0.2358,-0.2346,-0.2329,-0.2308,-0.229,-0.2266,-0.2246,-0.2221,-0.2199,-0.2191,-0.2183,-0.2186,-0.2186,-0.2183,-0.2176,-0.2179,-0.2192,-0.2192,-0.2192,-0.2192,-0.2192,-0.2192,-0.2476,-0.246,-0.2445,-0.242,-0.2402,-0.2382,-0.237,-0.2353,-0.2336,-0.2311,-0.2293,-0.2277,-0.2254,-0.223,-0.221,-0.2203,-0.2196,-0.22,-0.2191,-0.2185,-0.2183,-0.2182,-0.2184,-0.2199,-0.2199,-0.2199,-0.2199,-0.2199]}]]